Location: Mainz-Finthen
(49.9906°N, 8.1713°E)
Time: 20:15:30
(UTC+00:00)

N. Korean satellite - Pass Details

Date: 02 October 2021
Orbit: 450 x 495 km, 97.3° (Epoch: 15 October)

Event Time Altitude Azimuth Distance (km) Brightness Sun altitude
Rises 04:54:24 0° 12° (NNE) 2,548 10.4 -6.4°
Reaches altitude 10° 04:56:28 10° 13° (NNE) 1,671 9.5 -6.1°
Maximum altitude 05:00:04 89° 277° (W) 494 6.6 -5.5°
Drops below altitude 10° 05:03:41 10° 195° (SSW) 1,679 9.2 -4.9°
Sets 05:05:45 0° 195° (SSW) 2,561 10.1 -4.6°
